This demonstration page uses our WeatherBlox Daily Observations layout. Learn more.

Left ArrowRight Arrow

Hourly Observations for July 4, 2020

Temp ( °F °C ) Dew Point ( °F °C ) Humidity (%) Winds ( mph kmh ) Pressure ( in mb ) Visibility ( mi km ) Precip ( " mm )
12:33 am 00:33 Hazy 73 22.8 66 18.9 79 79 Calm 30.04 1017 2 3 0.00 0.00
12:41 am 00:41 Clear 73 22.8 66 18.9 79 79 Calm 30.04 1017 9 14 0.00 0.00
12:53 am 00:53 Clear 71 21.7 66 18.9 84 84 Calm 30.06 1018 7 11 0.00 0.00
1:53 am 01:53 Clear 72 22.2 66 18.9 82 82 Calm 30.05 1018 7 11 0.00 0.00
2:53 am 02:53 Hazy 71 21.7 66 18.9 84 84 Calm 30.04 1017 6 10 0.00 0.00
3:53 am 03:53 Clear 69 20.6 65 18.3 87 87 Calm 30.03 1017 8 13 0.00 0.00
4:53 am 04:53 Clear 67 19.4 63 17.2 87 87 Calm 30.01 1016 8 13 0.00 0.00
5:53 am 05:53 Clear with Mist and Fog 68 20 64 17.8 87 87 Calm 30.00 1016 6 10 0.00 0.00
7:53 am 07:53 Hazy 72 22.2 67 19.4 84 84 Calm 30.04 1017 5 8 0.00 0.00
8:53 am 08:53 Sunny 78 25.6 69 20.6 74 74 E 3 6 30.04 1017 9 14 0.00 0.00
9:53 am 09:53 Mostly Cloudy 80 26.7 69 20.6 69 69 SSE 7 11 30.04 1017 10 16 0.00 0.00
10:53 am 10:53 Mostly Cloudy 83 28.3 69 20.6 63 63 SE 8 13 30.04 1017 10 16 0.00 0.00
11:23 am 11:23 Partly Cloudy 82 27.8 69 20.6 65 65 E 7 11 29.98 1015 10 16 0.00 0.00
11:53 am 11:53 Mostly Cloudy 83 28.3 68 20 61 61 SE 6 9 30.04 1017 10 16 0.00 0.00
12:53 pm 12:53 Mostly Cloudy 86 30 68 20 55 55 E 7 11 30.04 1017 10 16 0.00 0.00
1:53 pm 13:53 Cloudy 85 29.4 67 19.4 55 55 E 6 9 30.02 1017 10 16 0.00 0.00
2:53 pm 14:53 Mostly Cloudy 88 31.1 66 18.9 48 48 NE 9 15 30.01 1016 10 16 0.00 0.00
3:53 pm 15:53 Sunny 88 31.1 65 18.3 46 46 ENE 8 13 29.99 1016 10 16 0.00 0.00
4:53 pm 16:53 Sunny 88 31.1 65 18.3 46 46 SE 8 13 29.98 1015 10 16 0.00 0.00
5:53 pm 17:53 Sunny 87 30.6 64 17.8 46 46 E 10 17 29.96 1015 10 16 0.00 0.00
6:53 pm 18:53 Sunny 85 29.4 61 16.1 45 45 ENE 9 15 29.95 1014 10 16 0.00 0.00
7:53 pm 19:53 Sunny 83 28.3 62 16.7 49 49 SE 9 15 29.94 1014 10 16 0.00 0.00
8:53 pm 20:53 Sunny 80 26.7 64 17.8 58 58 SE 7 11 29.95 1014 10 16 0.00 0.00
9:53 pm 21:53 Clear 77 25 64 17.8 64 64 SE 7 11 29.98 1015 7 11 0.00 0.00
10:51 pm 22:51 Hazy 73 23 63 17 69 69 ESE 3 6 29.98 1015 3 4 0.00 0.00
10:53 pm 22:53 Hazy 73 22.8 63 17.2 71 71 ESE 5 7 30.01 1016 3 4 0.00 0.00
11:16 pm 23:16 Hazy 72 22.2 63 17.2 73 73 ESE 6 9 29.98 1015 3 5 0.00 0.00
11:53 pm 23:53 Hazy 72 22.2 63 17.2 73 73 SE 6 9 30.00 1016 3 5 0.00 0.00

Powered by AerisWeather